RYR119 LOWG-LSZH

Flight info

Callsign RYR119
Flight time 1h 10m
Altitude 30000
Route ABIRI DCT ERKIR L608 KPT L856 NEGRA
Aircraft B738/M-SDE2E3FGHIRWXY/LB1

Departure

Time 2026-05-08 12:53
Airport Graz Airport (LOWG)

Arrival

Time 2026-05-08 14:03
Airport Zürich Airport (LSZH)
Time Latitude Longitude Altitude Speed Heading
2026-05-08 12:43 46.99460 15.44340 1109 ft 0 kts 348°
2026-05-08 12:45 46.99459 15.44340 1102 ft 2 kts 348°
2026-05-08 12:45 46.99444 15.44347 1102 ft 4 kts 303°
2026-05-08 12:45 46.99438 15.44373 1104 ft 0 kts 280°
2026-05-08 12:50 46.99438 15.44367 1104 ft 6 kts 279°
2026-05-08 12:50 46.99481 15.44264 1107 ft 13 kts 341°
2026-05-08 12:50 46.99578 15.44237 1110 ft 17 kts 349°
2026-05-08 12:51 46.99709 15.44200 1109 ft 22 kts 349°
2026-05-08 12:51 47.00200 15.44069 1106 ft 37 kts 349°
2026-05-08 12:51 47.00369 15.43890 1107 ft 30 kts 307°
2026-05-08 12:52 47.00412 15.43651 1111 ft 23 kts 237°
2026-05-08 12:52 46.99749 15.43790 1102 ft 127 kts 168°
2026-05-08 12:52 46.98628 15.44026 1164 ft 196 kts 171°
2026-05-08 12:53 46.97233 15.44140 2147 ft 200 kts 187°
2026-05-08 12:53 46.95931 15.43525 3340 ft 194 kts 199°
2026-05-08 12:53 46.94634 15.43016 4276 ft 198 kts 191°
2026-05-08 12:53 46.93274 15.42353 4722 ft 212 kts 201°
2026-05-08 12:54 46.91920 15.41432 5356 ft 216 kts 205°
2026-05-08 12:54 46.90570 15.40403 6044 ft 220 kts 207°
2026-05-08 12:54 46.89200 15.39306 6710 ft 227 kts 209°
2026-05-08 12:54 46.87834 15.38182 7517 ft 227 kts 212°
2026-05-08 12:55 46.86711 15.36483 7994 ft 248 kts 246°
2026-05-08 12:55 46.86481 15.33869 8346 ft 271 kts 280°
2026-05-08 12:55 46.86964 15.31224 9244 ft 274 kts 286°
2026-05-08 12:55 46.87522 15.28561 10161 ft 278 kts 287°
2026-05-08 12:56 46.88109 15.25791 10684 ft 295 kts 287°
2026-05-08 12:56 46.88738 15.22798 10916 ft 322 kts 287°
2026-05-08 12:56 46.89409 15.19565 11305 ft 339 kts 286°
2026-05-08 12:56 46.90088 15.16259 12079 ft 344 kts 286°
2026-05-08 12:57 46.90773 15.12884 13006 ft 345 kts 285°
2026-05-08 12:57 46.91453 15.09512 13928 ft 347 kts 285°
2026-05-08 12:57 46.92140 15.06077 14620 ft 353 kts 285°
2026-05-08 12:57 46.92826 15.02635 15404 ft 355 kts 285°
2026-05-08 12:58 46.93463 14.99424 16057 ft 359 kts 285°
2026-05-08 12:58 46.94153 14.95936 16784 ft 363 kts 285°
2026-05-08 12:58 46.94855 14.92379 17544 ft 366 kts 285°
2026-05-08 12:58 46.95564 14.88784 18283 ft 369 kts 285°
2026-05-08 12:59 46.96278 14.85149 18928 ft 372 kts 285°
2026-05-08 12:59 46.96998 14.81479 19568 ft 375 kts 284°
2026-05-08 12:59 46.97720 14.77796 20174 ft 379 kts 284°
2026-05-08 12:59 46.98449 14.74061 20774 ft 382 kts 284°
2026-05-08 13:00 46.99184 14.70296 21360 ft 386 kts 284°
2026-05-08 13:00 46.99918 14.66525 21937 ft 390 kts 284°
2026-05-08 13:00 47.00662 14.62694 22540 ft 392 kts 284°
2026-05-08 13:00 47.01399 14.58893 23075 ft 396 kts 284°
2026-05-08 13:01 47.02157 14.54976 23632 ft 399 kts 284°
2026-05-08 13:01 47.02414 14.53644 23785 ft 401 kts 284°
2026-05-08 13:02 47.07369 14.27820 26894 ft 412 kts 282°
2026-05-08 13:03 47.08144 14.23748 27348 ft 414 kts 282°
2026-05-08 13:03 47.08924 14.19645 27991 ft 411 kts 282°
2026-05-08 13:03 47.09674 14.15698 28708 ft 405 kts 281°
2026-05-08 13:03 47.10432 14.11703 29402 ft 402 kts 281°
2026-05-08 13:04 47.11166 14.07814 29913 ft 402 kts 281°
2026-05-08 13:04 47.11915 14.03827 30029 ft 409 kts 281°
2026-05-08 13:04 47.13379 13.96017 30034 ft 408 kts 281°
2026-05-08 13:05 47.14831 13.88265 30061 ft 408 kts 281°
2026-05-08 13:05 47.15557 13.84353 30064 ft 420 kts 281°
2026-05-08 13:05 47.16289 13.80390 30063 ft 431 kts 281°
2026-05-08 13:06 47.17822 13.72095 30065 ft 449 kts 281°
2026-05-08 13:06 47.19404 13.63538 30043 ft 457 kts 281°
2026-05-08 13:07 47.20979 13.54958 30041 ft 461 kts 281°
2026-05-08 13:07 47.21761 13.50706 30020 ft 443 kts 281°
2026-05-08 13:07 47.22533 13.46525 30031 ft 430 kts 281°
2026-05-08 13:08 47.23190 13.42957 30003 ft 414 kts 281°
2026-05-08 13:08 47.23423 13.41691 29618 ft 409 kts 282°
2026-05-08 13:08 47.24168 13.37602 30107 ft 401 kts 281°
2026-05-08 13:08 47.24874 13.33702 30080 ft 401 kts 280°
2026-05-08 13:09 47.26293 13.25847 30058 ft 392 kts 280°
2026-05-08 13:09 47.27685 13.18090 30050 ft 395 kts 280°
2026-05-08 13:10 47.29084 13.10251 30043 ft 397 kts 280°
2026-05-08 13:10 47.30487 13.02389 30041 ft 397 kts 280°
2026-05-08 13:11 47.31833 12.94815 30059 ft 396 kts 280°
2026-05-08 13:11 47.33218 12.86989 30060 ft 400 kts 279°
2026-05-08 13:12 47.33886 12.83181 30066 ft 412 kts 279°
2026-05-08 13:12 47.34578 12.79226 30063 ft 423 kts 279°
2026-05-08 13:12 47.35288 12.75164 30055 ft 434 kts 280°
2026-05-08 13:12 47.36008 12.71043 30069 ft 442 kts 280°
2026-05-08 13:13 47.37506 12.62470 30029 ft 446 kts 280°
2026-05-08 13:13 47.38268 12.58136 30024 ft 425 kts 280°
2026-05-08 13:13 47.38992 12.54024 30041 ft 405 kts 279°
2026-05-08 13:14 47.39688 12.50044 30040 ft 394 kts 279°
2026-05-08 13:14 47.40354 12.46187 30066 ft 393 kts 279°
2026-05-08 13:14 47.41694 12.38379 30038 ft 391 kts 279°
2026-05-08 13:15 47.43022 12.30590 30052 ft 391 kts 279°
2026-05-08 13:15 47.44343 12.22822 30041 ft 393 kts 279°
2026-05-08 13:16 47.45672 12.14991 30039 ft 394 kts 279°
2026-05-08 13:16 47.46994 12.07172 30032 ft 394 kts 279°
2026-05-08 13:17 47.48279 11.99541 30045 ft 393 kts 279°
2026-05-08 13:17 47.49590 11.91718 30034 ft 394 kts 279°
2026-05-08 13:18 47.50908 11.83816 30034 ft 395 kts 279°
2026-05-08 13:18 47.52218 11.75922 30052 ft 395 kts 279°
2026-05-08 13:19 47.53521 11.68041 30013 ft 395 kts 279°
2026-05-08 13:19 47.54810 11.60208 30042 ft 394 kts 278°
2026-05-08 13:20 47.56110 11.52257 30032 ft 396 kts 279°
2026-05-08 13:20 47.57401 11.44341 30033 ft 395 kts 279°
2026-05-08 13:21 47.58679 11.36465 30022 ft 394 kts 279°
2026-05-08 13:21 47.59955 11.28559 30050 ft 394 kts 279°
2026-05-08 13:22 47.61228 11.20635 30033 ft 396 kts 279°
2026-05-08 13:22 47.62502 11.12662 30039 ft 396 kts 279°
2026-05-08 13:23 47.63767 11.04715 30063 ft 397 kts 279°
2026-05-08 13:23 47.64978 10.97063 30052 ft 398 kts 279°
2026-05-08 13:24 47.66240 10.89059 30064 ft 398 kts 278°
2026-05-08 13:24 47.67492 10.81078 30051 ft 398 kts 278°
2026-05-08 13:25 47.68745 10.73050 29611 ft 402 kts 278°
2026-05-08 13:25 47.69376 10.68973 28375 ft 411 kts 279°
2026-05-08 13:25 47.70025 10.64774 27170 ft 421 kts 279°
2026-05-08 13:26 47.70686 10.60501 26022 ft 428 kts 280°
2026-05-08 13:26 47.71358 10.56149 24917 ft 432 kts 281°
2026-05-08 13:26 47.72025 10.51835 23845 ft 426 kts 281°
2026-05-08 13:26 47.72679 10.47594 23269 ft 408 kts 281°
2026-05-08 13:27 47.73286 10.43650 22970 ft 387 kts 281°
2026-05-08 13:27 47.73873 10.39803 22697 ft 377 kts 281°
2026-05-08 13:27 47.74412 10.36062 22418 ft 367 kts 277°
2026-05-08 13:27 47.74603 10.32343 22139 ft 357 kts 268°
2026-05-08 13:28 47.74517 10.28697 21868 ft 350 kts 266°
2026-05-08 13:28 47.74415 10.25128 21594 ft 344 kts 266°
2026-05-08 13:28 47.74316 10.21588 21343 ft 342 kts 266°
2026-05-08 13:28 47.74222 10.18047 21095 ft 344 kts 267°
2026-05-08 13:29 47.74131 10.14465 20846 ft 348 kts 267°
2026-05-08 13:29 47.74043 10.10868 20597 ft 347 kts 267°
2026-05-08 13:29 47.73957 10.07291 20341 ft 345 kts 267°
2026-05-08 13:29 47.73872 10.03771 20092 ft 343 kts 267°
2026-05-08 13:30 47.73784 10.00235 19844 ft 342 kts 267°
2026-05-08 13:30 47.73703 9.96997 19620 ft 341 kts 267°
2026-05-08 13:30 47.73613 9.93516 19375 ft 341 kts 266°
2026-05-08 13:30 47.73522 9.90006 19130 ft 340 kts 266°
2026-05-08 13:31 47.73430 9.86483 18897 ft 340 kts 266°
2026-05-08 13:31 47.73338 9.82997 18662 ft 340 kts 266°
2026-05-08 13:31 47.73244 9.79501 18426 ft 340 kts 266°
2026-05-08 13:31 47.73151 9.76011 18127 ft 337 kts 266°
2026-05-08 13:32 47.73087 9.73663 17889 ft 334 kts 266°
2026-05-08 13:32 47.72993 9.70232 17503 ft 332 kts 266°
2026-05-08 13:32 47.72898 9.66810 17126 ft 329 kts 266°
2026-05-08 13:32 47.72783 9.62337 16591 ft 327 kts 266°
2026-05-08 13:33 47.72725 9.60038 16325 ft 326 kts 266°
2026-05-08 13:33 47.72641 9.56728 15951 ft 324 kts 266°
2026-05-08 13:33 47.72551 9.53395 15581 ft 322 kts 266°
2026-05-08 13:33 47.72444 9.50050 15220 ft 319 kts 266°
2026-05-08 13:34 47.72336 9.46776 14863 ft 317 kts 266°
2026-05-08 13:34 47.72090 9.43566 14488 ft 315 kts 252°
2026-05-08 13:34 47.71140 9.40660 14152 ft 311 kts 234°
2026-05-08 13:34 47.69817 9.38173 13811 ft 310 kts 230°
2026-05-08 13:35 47.68438 9.35711 13396 ft 308 kts 230°
2026-05-08 13:35 47.67067 9.33271 13019 ft 306 kts 230°
2026-05-08 13:35 47.65722 9.30862 12663 ft 304 kts 230°
2026-05-08 13:35 47.64399 9.28471 12320 ft 302 kts 231°
2026-05-08 13:36 47.63086 9.26088 11958 ft 300 kts 230°
2026-05-08 13:36 47.61762 9.23686 11618 ft 299 kts 230°
2026-05-08 13:36 47.60449 9.21303 11270 ft 297 kts 231°
2026-05-08 13:36 47.59329 9.18798 10911 ft 297 kts 248°
2026-05-08 13:37 47.58827 9.15840 10584 ft 296 kts 259°
2026-05-08 13:37 47.58481 9.12839 10422 ft 288 kts 259°
2026-05-08 13:37 47.58146 9.09955 10286 ft 280 kts 258°
2026-05-08 13:37 47.57806 9.07151 10165 ft 273 kts 258°
2026-05-08 13:38 47.57472 9.04425 10034 ft 266 kts 259°
2026-05-08 13:38 47.57360 9.01697 9738 ft 268 kts 270°
2026-05-08 13:38 47.57472 8.99160 9491 ft 266 kts 273°
2026-05-08 13:38 47.57634 8.96401 9203 ft 265 kts 273°
2026-05-08 13:39 47.57795 8.93685 8940 ft 265 kts 274°
2026-05-08 13:39 47.57948 8.90993 8591 ft 265 kts 274°
2026-05-08 13:39 47.58098 8.88145 7391 ft 289 kts 273°
2026-05-08 13:39 47.58249 8.85230 7007 ft 281 kts 274°
2026-05-08 13:40 47.58401 8.82355 6539 ft 278 kts 274°
2026-05-08 13:40 47.58535 8.79496 6059 ft 275 kts 274°
2026-05-08 13:40 47.58663 8.76706 5607 ft 268 kts 274°
2026-05-08 13:40 47.58787 8.73995 5203 ft 255 kts 274°
2026-05-08 13:41 47.58903 8.71489 5073 ft 231 kts 274°
2026-05-08 13:41 47.59005 8.69239 5049 ft 208 kts 274°
2026-05-08 13:41 47.59103 8.67103 5046 ft 207 kts 274°
2026-05-08 13:41 47.59199 8.64996 5050 ft 205 kts 274°
2026-05-08 13:42 47.59292 8.62900 5044 ft 204 kts 274°
2026-05-08 13:42 47.59387 8.60800 5050 ft 205 kts 274°
2026-05-08 13:42 47.59482 8.58695 5050 ft 205 kts 274°
2026-05-08 13:42 47.59578 8.56579 5053 ft 206 kts 274°
2026-05-08 13:43 47.59671 8.54464 5046 ft 206 kts 274°
2026-05-08 13:43 47.59765 8.52348 4938 ft 208 kts 274°
2026-05-08 13:43 47.59860 8.50192 4764 ft 209 kts 274°
2026-05-08 13:43 47.59953 8.48042 4547 ft 209 kts 274°
2026-05-08 13:44 47.60047 8.45861 4131 ft 210 kts 274°
2026-05-08 13:44 47.60138 8.43768 4026 ft 206 kts 274°
2026-05-08 13:44 47.60021 8.41665 3963 ft 207 kts 245°
2026-05-08 13:44 47.58999 8.40279 3986 ft 204 kts 196°
2026-05-08 13:45 47.57624 8.40472 3983 ft 203 kts 148°
2026-05-08 13:45 47.56586 8.41863 3995 ft 203 kts 134°
2026-05-08 13:45 47.55607 8.43301 3962 ft 191 kts 135°
2026-05-08 13:45 47.54697 8.44697 3987 ft 188 kts 133°
2026-05-08 13:46 47.53757 8.46055 3999 ft 191 kts 136°
2026-05-08 13:46 47.52780 8.47386 3996 ft 191 kts 136°
2026-05-08 13:46 47.51797 8.48721 3990 ft 191 kts 136°
2026-05-08 13:46 47.50851 8.50010 3998 ft 194 kts 137°
2026-05-08 13:47 47.49904 8.51282 4212 ft 196 kts 137°
2026-05-08 13:47 47.48942 8.52533 4820 ft 194 kts 139°
2026-05-08 13:47 47.47972 8.53751 5801 ft 188 kts 138°
2026-05-08 13:47 47.47026 8.55077 6729 ft 194 kts 136°
2026-05-08 13:48 47.45929 8.56638 6288 ft 238 kts 136°
2026-05-08 13:48 47.44753 8.58279 6473 ft 230 kts 137°
2026-05-08 13:48 47.43563 8.59919 6589 ft 234 kts 137°
2026-05-08 13:48 47.42372 8.61549 6648 ft 234 kts 137°
2026-05-08 13:49 47.41239 8.63243 6655 ft 235 kts 124°
2026-05-08 13:49 47.40772 8.65530 6564 ft 237 kts 87°
2026-05-08 13:49 47.41248 8.67825 6459 ft 237 kts 55°
2026-05-08 13:49 47.42477 8.69382 6339 ft 233 kts 22°
2026-05-08 13:50 47.44045 8.69872 6307 ft 231 kts
2026-05-08 13:50 47.45645 8.69945 6301 ft 230 kts
2026-05-08 13:50 47.47246 8.70009 6287 ft 229 kts
2026-05-08 13:50 47.48839 8.70095 6282 ft 229 kts
2026-05-08 13:51 47.50300 8.70976 6135 ft 238 kts 37°
2026-05-08 13:51 47.51592 8.72590 5943 ft 242 kts 38°
2026-05-08 13:51 47.52897 8.74181 5706 ft 241 kts 38°
2026-05-08 13:51 47.54173 8.75719 5483 ft 240 kts 38°
2026-05-08 13:52 47.55468 8.77272 5255 ft 238 kts 39°
2026-05-08 13:52 47.56834 8.78630 4999 ft 237 kts 18°
2026-05-08 13:52 47.58448 8.78618 4769 ft 234 kts 338°
2026-05-08 13:52 47.59742 8.77206 4557 ft 232 kts 310°
2026-05-08 13:53 47.60555 8.75171 4334 ft 230 kts 294°
2026-05-08 13:53 47.61147 8.72961 4115 ft 229 kts 291°
2026-05-08 13:53 47.61707 8.70792 4012 ft 221 kts 291°
2026-05-08 13:53 47.62255 8.68712 3980 ft 211 kts 291°
2026-05-08 13:54 47.62780 8.66735 3970 ft 202 kts 292°
2026-05-08 13:54 47.63295 8.64808 3980 ft 202 kts 292°
2026-05-08 13:54 47.63815 8.62865 3994 ft 203 kts 292°
2026-05-08 13:54 47.64334 8.60928 4002 ft 205 kts 292°
2026-05-08 13:55 47.64862 8.58955 3996 ft 207 kts 292°
2026-05-08 13:55 47.65384 8.57009 3985 ft 202 kts 292°
2026-05-08 13:55 47.66389 8.53270 3988 ft 195 kts 292°
2026-05-08 13:56 47.66897 8.51372 3987 ft 199 kts 292°
2026-05-08 13:56 47.67409 8.49458 3984 ft 201 kts 292°
2026-05-08 13:56 47.67924 8.47541 3975 ft 200 kts 292°
2026-05-08 13:56 47.68401 8.45612 3962 ft 199 kts 281°
2026-05-08 13:57 47.68208 8.43651 3983 ft 194 kts 238°
2026-05-08 13:57 47.67218 8.42301 4005 ft 198 kts 209°
2026-05-08 13:57 47.65996 8.41314 3990 ft 202 kts 208°
2026-05-08 13:57 47.64769 8.40328 3990 ft 201 kts 208°
2026-05-08 13:58 47.63535 8.39340 3977 ft 200 kts 209°
2026-05-08 13:58 47.62314 8.38363 3970 ft 198 kts 209°
2026-05-08 13:58 47.61090 8.37471 3963 ft 196 kts 195°
2026-05-08 13:58 47.59788 8.37708 3975 ft 192 kts 146°
2026-05-08 13:59 47.58801 8.39027 4000 ft 196 kts 136°
2026-05-08 13:59 47.57818 8.40429 3938 ft 198 kts 134°
2026-05-08 13:59 47.56813 8.41878 3714 ft 199 kts 136°
2026-05-08 13:59 47.55829 8.43233 3466 ft 191 kts 137°
2026-05-08 14:00 47.54877 8.44529 3204 ft 183 kts 136°
2026-05-08 14:00 47.53956 8.45782 2959 ft 174 kts 136°
2026-05-08 14:00 47.53096 8.46952 2775 ft 160 kts 136°
2026-05-08 14:00 47.52303 8.48032 2527 ft 151 kts 136°
2026-05-08 14:01 47.51525 8.49091 2333 ft 153 kts 136°
2026-05-08 14:01 47.50746 8.50153 2132 ft 155 kts 136°
2026-05-08 14:01 47.49949 8.51240 1900 ft 154 kts 135°
2026-05-08 14:01 47.49191 8.52272 1689 ft 144 kts 135°
2026-05-08 14:02 47.48475 8.53247 1509 ft 134 kts 135°
2026-05-08 14:02 47.47806 8.54159 1408 ft 126 kts 136°
2026-05-08 14:02 47.47220 8.54930 1385 ft 103 kts 135°
2026-05-08 14:02 47.46831 8.55482 1393 ft 66 kts 137°
2026-05-08 14:03 47.46674 8.55633 1394 ft 26 kts 158°
2026-05-08 14:03 47.46471 8.55720 1396 ft 26 kts 166°
2026-05-08 14:03 47.46321 8.55844 1403 ft 25 kts 136°
2026-05-08 14:03 47.46247 8.55861 1402 ft 11 kts 243°
2026-05-08 14:04 47.46238 8.55752 1400 ft 12 kts 272°
2026-05-08 14:04 47.46246 8.55628 1398 ft 13 kts 274°
2026-05-08 14:04 47.46256 8.55493 1400 ft 14 kts 276°
2026-05-08 14:04 47.46263 8.55396 1395 ft 15 kts 276°
2026-05-08 14:05 47.46265 8.55334 1394 ft 7 kts 264°
2026-05-08 14:05 47.46252 8.55306 1400 ft 8 kts 218°
2026-05-08 14:05 47.46227 8.55292 1394 ft 7 kts 195°
2026-05-08 14:05 47.46202 8.55286 1395 ft 1 kts 186°
2026-05-08 14:06 47.46196 8.55286 1395 ft 4 kts 185°
2026-05-08 14:06 47.46189 8.55285 1395 ft 0 kts 185°